Theta_e
311 303 298 298 302 304 306 307 307 307 306 305 304 302 301 301 302 305 306 306 308 304 303 303 303 303 305 307 308 310 310 310 309 310 311 311 312 312 313 314 316 316 317 322 322 322 322 322 321 322 325 327 329 330 329 330 331 331 331 332 332 333 334 333 333 333 332 330 329 329 328 328 329 329 330 331 331 331 330 330 330 329 329 330 330 329
309 300 300 304 306 307 307 309 308 307 306 305 302 301 300 302 299 304 304 306 307 302 301 304 303 303 305 306 308 309 309 308 308 308 309 311 311 311 312 313 315 316 319 321 321 321 322 322 323 321 321 321 324 327 328 329 330 331 332 331 332 333 333 332 333 333 333 332 330 329 328 328 329 329 328 328 329 329 331 331 330 330 330 330 331 330
299 296 302 306 309 309 309 309 308 306 304 304 301 301 300 300 303 305 305 306 305 302 300 303 301 302 304 306 308 308 307 308 309 308 308 309 310 310 310 312 313 315 316 318 319 321 321 324 323 322 321 321 322 325 327 329 329 330 331 331 332 332 332 332 332 333 333 333 333 331 331 330 329 331 330 330 330 330 329 330 330 330 330 330 331 332
295 299 304 308 309 307 307 307 307 305 305 302 301 299 297 302 300 296 302 304 304 302 300 302 300 302 304 306 306 308 308 308 310 309 309 309 310 310 310 311 312 313 315 316 318 318 320 321 323 322 321 321 322 322 324 326 327 328 329 330 331 332 332 332 332 331 334 334 334 334 333 333 331 330 330 331 330 330 329 328 330 330 330 330 330 331
298 303 308 309 308 307 304 305 304 302 300 303 302 300 299 300 301 300 300 303 304 304 304 301 298 298 301 300 302 306 308 307 308 309 309 310 312 313 313 314 314 313 313 315 317 318 319 319 321 323 323 322 321 322 322 323 325 327 328 330 331 331 332 332 332 331 333 333 333 333 333 333 332 331 330 329 328 328 328 328 328 328 330 330 330 330
302 307 309 306 305 305 304 302 303 302 299 300 303 303 302 302 300 301 302 300 298 298 302 299 292 293 300 301 301 304 305 305 308 307 308 308 309 312 311 312 313 315 316 315 315 316 317 319 320 321 324 324 322 322 323 324 325 327 329 330 331 331 332 332 332 332 331 330 331 330 329 327 327 326 327 326 326 327 327 326 328 329 329 329 329 330
302 308 307 305 304 304 303 301 304 304 299 297 299 305 304 302 302 301 300 299 293 291 299 303 292 288 298 298 300 302 303 304 307 308 309 309 310 311 311 312 313 314 315 317 318 318 318 319 319 320 321 323 324 323 324 325 325 326 328 329 331 331 331 332 332 332 330 330 330 331 330 329 327 326 327 329 330 329 329 330 328 329 330 330 329 329
304 304 305 306 305 302 301 299 303 303 299 296 306 304 304 302 301 301 300 299 297 301 302 300 298 291 291 296 301 302 301 301 303 305 307 309 310 310 310 311 312 314 315 316 317 319 320 320 320 319 321 321 322 325 324 324 324 324 325 327 328 330 330 331 333 332 331 329 329 330 330 329 329 328 328 329 329 330 330 330 329 329 329 330 330 329
303 302 303 303 303 302 299 302 305 305 301 300 306 306 303 302 301 301 299 298 298 296 291 296 300 291 290 296 301 301 298 299 300 303 305 307 310 310 310 310 311 312 313 315 316 317 318 319 319 319 320 321 322 323 324 324 324 325 325 325 326 328 329 330 332 331 331 329 329 329 329 329 328 329 330 330 330 330 330 329 329 329 329 329 330 330
304 305 305 305 303 299 304 306 307 305 300 304 306 307 305 305 303 302 299 297 297 293 288 293 297 289 290 296 297 300 298 298 299 302 304 306 307 309 310 311 311 312 313 315 315 316 317 317 318 319 319 319 321 323 325 324 324 323 323 322 322 323 327 329 330 330 331 330 328 329 329 328 328 328 329 330 329 329 330 328 329 329 329 329 329 329
304 306 308 305 302 304 305 306 308 306 306 307 305 302 302 301 300 300 299 297 292 287 289 295 296 294 287 294 296 296 298 300 301 302 304 306 307 308 310 311 312 312 313 315 316 316 317 317 317 317 317 318 320 324 323 323 322 322 321 321 320 321 323 326 328 330 329 330 329 327 328 328 328 329 328 327 327 328 329 328 328 329 328 329 329 329
303 304 303 305 308 307 307 304 308 308 307 303 301 298 298 296 298 295 294 295 286 284 292 296 296 296 285 291 296 299 301 302 301 300 302 304 305 307 309 310 311 312 312 313 313 314 315 316 316 317 316 317 318 319 319 321 322 321 321 320 319 320 321 323 326 329 329 329 329 328 328 328 329 329 328 327 326 327 328 328 327 328 328 328 328 329
296 299 304 305 308 306 302 299 302 303 301 301 299 297 290 287 288 283 288 282 284 284 291 295 296 291 290 294 298 300 300 302 303 304 304 305 305 307 308 310 311 312 313 313 314 315 316 317 316 317 317 318 319 319 319 319 321 322 320 319 318 319 320 321 323 326 328 328 328 329 328 328 328 329 328 328 327 328 327 328 328 327 327 327 327 327
292 302 303 303 305 305 302 294 294 292 297 298 295 293 289 285 282 280 284 286 286 290 294 293 297 290 294 297 301 300 303 304 304 305 306 307 306 307 309 312 311 314 314 314 314 315 315 316 317 318 317 317 317 318 319 320 319 319 320 319 318 318 320 320 321 323 326 328 328 328 328 328 327 327 328 328 328 328 328 328 328 328 327 327 327 327
285 285 294 299 295 305 302 300 299 297 297 298 301 297 291 289 285 280 283 281 282 286 291 296 289 285 288 293 303 303 304 305 306 306 307 307 307 308 309 310 310 312 313 314 315 316 316 317 317 318 318 318 318 318 318 317 317 318 318 318 317 317 318 319 320 322 324 326 328 328 328 328 328 327 327 328 328 328 328 328 328 328 328 327 328 328
290 290 299 303 304 304 301 304 305 302 299 300 301 301 293 290 296 286 288 287 286 286 286 289 288 294 292 301 302 305 305 305 306 306 306 306 307 309 309 310 311 312 312 313 314 315 316 317 317 318 318 318 317 317 317 316 317 317 317 317 317 316 317 318 318 320 323 325 327 327 327 327 327 327 327 327 327 327 329 329 328 328 329 328 328 329
291 288 301 303 305 302 302 304 303 304 287 296 297 290 293 302 296 290 289 292 290 288 284 291 292 295 300 300 302 303 302 302 304 305 306 306 307 308 309 310 310 311 312 314 315 316 316 316 316 317 316 316 316 316 316 316 316 316 316 316 315 315 316 317 317 319 322 324 325 326 327 327 327 327 326 326 327 327 328 328 329 328 329 329 329 329
289 290 301 300 298 303 305 304 305 304 303 298 291 295 302 302 301 292 284 287 286 283 284 290 287 290 291 287 300 299 300 301 302 303 305 305 307 306 308 310 311 312 313 314 315 315 315 315 314 315 316 315 315 315 315 315 316 316 316 315 315 314 314 315 316 318 320 322 323 325 326 327 327 327 327 327 326 327 327 328 328 328 328 328 329 329
300 289 295 300 300 303 306 304 301 303 304 297 296 304 294 286 286 292 289 281 281 280 283 287 290 290 292 291 297 297 298 300 301 302 303 303 304 305 306 308 310 311 312 314 314 314 313 312 313 314 314 315 315 315 316 315 314 314 315 314 314 313 314 315 317 318 320 321 323 325 325 326 327 327 327 327 327 327 327 327 327 327 328 329 329 328
299 289 291 301 300 302 302 300 289 294 301 300 303 299 302 295 290 288 288 288 288 282 283 283 288 286 296 296 298 298 300 301 302 302 303 304 305 305 306 307 309 312 313 314 312 312 312 312 312 312 312 313 313 312 312 311 312 312 312 312 312 313 313 313 315 316 317 319 321 324 325 326 327 327 327 327 327 326 326 326 327 327 327 328 328 328
293 299 286 293 301 300 291 296 293 295 292 295 296 294 295 292 300 297 295 290 286 284 284 284 284 289 296 301 301 301 301 302 302 302 303 303 304 306 307 309 311 311 312 313 312 310 310 310 311 311 312 312 311 310 310 310 309 309 310 310 311 311 311 312 312 313 315 318 320 321 323 325 326 326 327 327 327 326 326 327 327 327 328 328 328 328
289 289 286 290 290 291 293 300 300 300 299 296 295 294 294 291 289 286 284 296 290 287 284 285 282 290 299 304 303 303 304 304 304 304 304 305 305 307 309 309 310 312 311 311 311 310 309 309 310 310 311 311 310 310 309 309 309 309 308 309 309 309 310 310 311 312 314 315 318 320 322 324 325 326 326 326 326 326 326 327 327 327 327 327 328 328
296 293 289 286 288 292 297 297 299 303 303 300 298 295 299 296 295 289 283 286 291 290 293 290 287 289 301 303 304 304 304 305 305 305 305 305 306 306 308 310 311 311 312 313 312 309 308 308 309 309 308 310 310 311 310 310 309 308 308 308 308 308 309 310 311 313 315 316 318 320 322 323 324 325 326 326 326 326 326 326 327 327 327 326 327 328
297 288 285 286 290 292 295 298 299 300 302 298 299 300 298 294 295 292 291 293 289 290 288 288 285 290 301 303 303 304 305 304 305 305 305 305 306 307 308 310 310 311 311 314 312 309 307 307 308 308 309 310 311 310 309 310 309 308 308 308 307 308 309 309 310 312 313 315 316 318 320 321 322 323 324 325 326 326 326 327 327 327 327 327 327 326
290 290 289 285 284 285 288 291 293 295 296 293 293 297 299 300 298 297 293 290 288 289 290 287 282 288 299 303 301 302 302 302 302 304 305 305 307 309 309 309 310 310 311 311 312 309 308 307 307 309 310 311 311 310 310 309 310 308 309 309 308 308 308 308 309 309 310 312 313 315 317 319 321 322 323 324 325 325 326 326 326 326 326 326 325 325
294 291 288 283 280 278 278 279 281 285 288 293 297 297 298 297 296 294 288 289 285 289 291 288 287 295 300 302 301 301 302 302 304 304 305 307 307 307 308 309 309 310 310 309 310 312 310 308 307 309 310 311 312 312 311 310 309 309 309 309 308 307 308 308 307 307 307 309 310 312 314 317 318 319 321 322 323 324 324 325 325 326 326 325 324 324
291 295 292 290 288 286 290 291 296 297 292 288 292 295 296 298 298 297 293 289 285 289 288 291 293 294 297 300 301 301 301 301 302 303 303 304 306 308 309 310 310 310 309 308 308 311 309 309 310 310 310 311 312 312 313 310 310 309 308 309 309 307 306 306 306 306 305 306 307 309 311 314 316 317 318 319 320 321 322 322 323 324 323 323 323 322
291 290 292 293 292 293 294 289 295 296 291 292 291 293 296 296 296 294 290 287 293 289 284 292 295 293 295 298 300 301 301 302 303 304 304 305 307 308 309 308 304 307 307 308 308 309 310 312 313 313 312 312 313 313 312 313 310 309 308 309 308 306 306 306 305 305 305 305 306 307 309 311 313 315 316 317 317 318 318 319 320 320 321 321 321 322
292 288 293 293 291 293 294 295 296 295 294 293 293 293 293 294 293 290 290 293 293 287 285 293 294 292 295 298 301 303 302 303 303 302 303 304 305 305 306 306 306 306 306 307 308 309 310 312 314 314 313 316 313 312 310 309 309 311 314 312 309 307 305 304 304 304 304 305 305 306 308 309 310 311 311 311 312 312 313 314 315 316 317 317 318 318
291 289 293 293 291 292 292 293 294 293 293 293 294 294 295 294 293 293 292 294 294 291 293 292 291 293 298 300 302 302 303 302 303 304 304 303 302 303 304 304 304 305 306 306 308 309 311 312 312 312 313 314 312 310 308 308 309 308 309 310 311 308 306 304 303 303 303 304 305 306 307 307 307 307 307 307 307 308 309 310 311 312 313 313 313 313
294 288 293 293 289 290 293 294 295 293 293 292 294 295 295 295 295 295 294 295 295 293 292 291 290 290 296 299 299 302 304 304 304 303 303 304 303 303 304 304 304 305 306 307 308 310 311 311 311 311 312 311 309 309 309 308 308 308 307 308 308 307 305 303 304 303 303 303 305 305 305 305 304 305 304 304 304 304 305 306 307 307 307 308 309 309
294 290 294 291 287 286 291 292 293 293 292 291 291 293 293 293 291 292 290 293 291 289 290 290 288 288 294 298 299 301 302 302 302 303 303 303 303 303 304 304 305 306 307 307 308 309 310 310 310 311 310 308 308 308 308 307 306 306 306 306 306 305 305 304 304 303 304 304 305 305 304 304 304 303 302 302 302 302 302 302 301 302 303 303 302 303
290 291 289 288 285 284 290 292 291 291 288 285 286 290 293 294 295 295 295 295 294 294 289 285 286 293 297 300 300 300 301 301 302 302 302 303 305 305 305 305 306 306 307 308 308 308 310 309 310 311 309 309 308 307 306 306 305 305 306 305 305 304 304 304 304 304 304 304 305 305 305 305 304 304 303 303 302 302 301 299 298 298 298 298 299 296
291 290 289 290 284 285 288 289 290 286 278 279 293 296 295 292 293 291 291 293 295 295 293 294 295 298 299 299 299 299 300 301 302 303 305 305 305 306 306 306 306 307 307 309 309 309 309 310 310 309 308 307 306 305 305 305 304 305 305 304 304 304 303 303 303 303 303 304 304 304 304 304 303 303 303 302 301 300 300 299 299 299 298 298 297 297
288 288 288 289 285 284 287 287 283 277 279 292 297 297 298 297 296 294 295 296 297 298 298 297 298 299 300 301 301 302 303 304 304 303 305 306 306 306 306 306 306 307 307 307 308 309 309 307 307 306 305 304 304 306 305 305 304 303 304 304 303 303 303 303 303 303 304 304 304 304 304 304 303 302 302 301 300 300 299 298 298 298 298 297 297 297
288 288 289 287 287 287 285 283 275 277 289 294 294 296 298 297 296 295 293 296 297 299 299 297 299 300 300 301 301 302 302 303 305 306 306 306 308 308 307 306 306 306 306 307 305 305 305 304 303 303 302 304 305 305 305 302 303 303 303 303 303 302 302 302 302 303 303 303 303 304 303 303 302 302 301 300 300 299 298 298 298 297 297 295 296 296
294 290 290 285 289 281 283 283 281 289 286 288 291 293 295 292 292 291 286 291 296 298 298 298 299 299 299 300 301 302 302 302 300 303 306 306 308 308 307 306 307 305 304 303 303 302 303 303 302 303 303 303 305 305 303 302 302 302 302 302 303 301 301 301 301 301 301 301 302 302 302 302 301 300 299 299 298 298 298 297 297 296 294 295 294 295
295 289 289 286 285 287 283 281 282 281 277 284 292 296 299 298 298 297 293 289 297 298 299 298 298 299 299 300 300 301 302 298 295 297 303 306 307 308 305 304 302 301 301 301 302 301 301 302 302 302 302 302 304 302 302 300 299 299 300 300 300 299 299 300 300 300 300 300 300 300 300 300 300 299 298 298 297 297 298 298 297 295 293 296 294 294
290 293 289 287 285 285 283 279 279 277 280 290 292 295 298 299 299 300 292 286 295 298 299 298 297 298 299 299 300 301 298 291 293 298 301 302 303 303 300 299 301 300 300 300 299 299 300 300 300 301 302 302 300 300 300 299 298 298 298 298 299 298 298 298 299 299 299 299 300 300 299 299 299 298 297 297 296 297 295 294 293 294 293 295 295 294
287 287 287 284 283 284 283 280 278 283 283 290 294 296 298 300 300 295 281 282 295 297 298 299 298 298 298 299 299 298 295 291 294 298 300 301 301 301 299 297 297 298 298 299 299 299 300 300 302 299 299 298 298 299 297 297 298 296 296 296 297 297 297 298 298 299 299 299 299 299 298 298 297 297 296 293 295 292 293 293 293 292 292 292 293 293
284 285 286 283 284 284 284 282 284 285 291 295 294 297 298 301 296 284 278 287 296 298 299 299 299 299 300 299 299 296 299 300 300 300 300 300 298 297 298 299 298 298 297 298 297 295 299 299 299 297 298 298 299 298 298 298 297 295 295 296 295 295 297 299 299 298 298 298 298 298 298 297 296 295 294 293 293 292 291 292 292 292 292 292 292 292
283 285 284 286 283 282 283 281 281 285 292 295 297 298 300 293 282 281 292 300 298 298 300 300 299 300 300 300 300 300 298 299 300 300 300 299 297 297 297 297 297 296 296 296 295 296 298 298 297 297 297 297 297 297 297 297 295 294 294 294 294 294 296 297 297 297 297 297 297 296 296 295 294 291 291 291 290 290 291 291 290 290 291 292 292 290
284 283 281 282 285 285 284 280 280 276 288 296 296 295 297 287 287 295 297 298 301 300 300 301 301 302 302 298 299 297 297 297 298 298 298 298 296 295 295 295 295 296 296 295 294 294 295 294 294 294 294 295 295 296 296 294 292 294 294 293 294 295 296 296 296 296 296 295 294 291 292 291 290 290 290 290 290 289 289 290 290 289 289 289 289 289
291 283 283 284 288 280 281 278 279 287 293 296 294 288 294 295 299 299 298 296 298 299 299 298 297 298 298 296 295 295 296 296 295 296 296 296 295 296 295 296 296 296 296 295 294 294 293 293 293 293 293 294 294 294 294 294 293 292 290 292 295 295 295 295 295 295 293 290 291 291 290 289 289 290 290 290 289 289 289 289 289 289 290 291 290 290
290 287 289 284 289 286 283 286 291 294 295 297 297 296 298 299 298 298 300 298 297 296 298 295 295 296 296 295 295 295 294 295 295 295 294 295 294 294 294 294 295 295 295 295 293 293 292 292 291 291 291 292 292 293 293 294 292 289 290 292 294 294 294 294 292 290 289 289 289 289 289 289 289 289 289 289 289 289 290 289 289 290 290 290 290 290
290 293 290 288 289 292 293 294 296 293 295 295 295 296 298 297 297 298 298 296 296 296 296 294 295 295 296 296 294 294 294 294 294 295 294 294 294 294 293 293 293 293 293 292 292 292 291 291 290 290 290 291 291 292 291 292 292 288 290 293 293 294 292 290 289 288 288 288 289 289 289 288 289 289 289 289 290 290 290 290 290 291 291 291 291 291
287 289 289 286 290 288 283 292 292 292 294 295 293 292 293 295 295 297 296 296 295 295 295 295 295 295 295 295 294 293 293 294 292 293 294 293 292 293 293 293 293 293 293 291 292 290 290 289 290 289 289 289 290 291 292 290 291 292 292 293 293 291 290 288 288 288 288 288 289 289 289 289 290 291 290 290 290 291 292 292 291 290 290 291 291 291
285 291 288 288 289 287 287 291 293 295 295 295 294 291 292 293 293 293 294 295 294 293 293 292 292 292 294 292 292 290 291 292 290 292 292 292 291 292 292 292 292 292 292 292 291 290 288 289 288 288 288 289 291 291 291 291 291 291 290 290 289 289 288 288 288 288 288 288 289 289 290 289 289 289 291 291 290 292 292 292 291 291 291 291 291 291
289 290 283 289 287 289 292 290 290 292 293 293 293 293 293 293 291 291 291 291 291 291 290 290 292 291 291 290 290 290 289 290 291 290 288 289 289 290 290 289 289 290 290 289 289 287 288 287 287 288 288 288 290 290 289 289 289 290 289 289 289 288 287 288 288 288 288 288 289 290 290 290 290 290 291 291 290 291 291 291 291 291 291 291 292 291
288 283 288 288 284 285 286 289 290 285 285 289 290 292 292 292 290 289 289 289 289 289 289 288 289 290 291 291 290 288 287 288 288 288 287 288 288 288 288 288 288 288 288 289 289 288 287 287 287 287 287 289 290 290 289 289 290 290 290 289 289 288 288 287 288 288 288 289 289 289 290 290 291 290 290 290 291 290 291 290 289 290 291 291 289 289
287 287 288 285 285 285 290 292 292 291 288 289 288 288 289 290 289 288 287 287 288 288 288 287 285 287 288 289 288 288 286 287 287 287 286 286 287 288 288 287 287 287 287 287 287 287 286 287 287 287 287 288 289 288 289 289 290 289 289 290 289 288 288 288 288 289 289 289 289 289 289 289 290 290 290 290 290 290 290 290 291 290 289 289 289 289
Wind_Speed
11 13 13 14 18 21 23 25 21 18 17 19 17 18 18 18 10 11 14 10 11 9 12 13 15 16 15 15 16 15 15 16 15 13 12 13 13 13 13 14 14 14 14 8 9 10 10 9 9 9 8 9 11 11 12 12 13 14 13 12 13 11 12 11 11 11 12 12 11 11 12 12 12 12 11 10 11 12 12 13 14 14 13 13 13 12
13 16 17 19 24 23 22 21 22 20 21 19 17 18 17 19 15 12 12 10 8 9 9 11 15 16 16 15 17 16 16 17 16 16 15 16 16 14 15 16 15 15 11 12 12 12 11 10 11 10 9 10 11 12 12 13 14 14 14 13 12 11 12 13 13 12 12 12 12 12 12 12 11 11 12 13 13 13 11 12 13 14 13 13 12 12
14 18 18 24 23 20 19 22 23 26 23 19 16 16 13 15 13 9 11 8 6 5 10 11 15 15 15 15 16 19 18 15 15 16 18 17 16 15 14 16 16 14 14 13 14 13 12 11 13 11 10 11 13 12 14 13 13 13 12 13 12 12 12 13 14 12 12 12 12 12 11 12 10 11 11 11 12 12 14 15 14 14 14 13 13 14
13 16 23 22 19 21 21 22 23 25 22 17 16 17 16 12 13 11 8 5 7 6 6 6 10 11 13 15 16 18 18 16 17 19 20 18 17 18 18 16 14 15 14 15 14 15 14 13 11 12 11 11 11 12 11 12 13 11 12 12 13 12 13 12 13 13 13 12 11 11 9 10 9 8 10 11 11 12 13 14 14 14 14 15 14 15
19 17 23 19 21 23 23 24 24 21 19 18 18 15 16 16 14 14 8 9 8 9 6 8 13 14 14 15 15 16 20 21 20 20 20 19 17 17 16 15 16 18 17 15 15 14 14 13 13 11 11 10 11 11 11 11 11 10 14 14 14 13 13 12 13 14 12 10 10 9 9 8 9 8 8 10 11 12 12 11 13 15 15 16 15 15
21 15 11 19 23 26 24 23 22 18 18 17 17 18 19 18 17 10 11 4 5 8 9 8 9 15 11 16 18 14 14 20 18 20 20 19 18 16 18 18 17 16 16 17 18 18 17 15 14 13 10 11 10 10 11 11 12 12 11 12 13 12 11 12 13 14 12 12 11 11 11 12 11 11 12 13 14 13 13 15 13 13 15 16 15 15
16 18 19 25 24 21 24 19 20 21 17 18 15 16 18 18 15 11 13 9 11 12 1 7 7 13 4 11 9 7 12 16 13 17 18 17 15 15 15 15 15 15 15 15 16 16 17 17 17 15 13 11 10 10 9 10 12 13 12 12 13 12 11 11 12 14 12 13 12 14 14 14 13 13 12 12 11 12 11 11 13 13 14 15 15 14
4 20 20 21 23 21 19 20 19 22 19 17 6 15 16 19 19 13 13 12 9 10 3 6 6 12 15 14 13 15 16 14 15 15 15 14 14 15 14 15 15 13 14 13 14 15 15 14 13 13 11 10 10 8 9 10 10 13 14 12 12 11 11 10 11 14 13 13 13 14 14 12 13 13 11 11 11 10 8 10 12 11 12 14 15 14
20 18 23 24 24 19 20 18 17 21 17 8 4 9 15 14 15 11 9 9 9 9 13 9 8 9 15 10 11 17 17 18 19 16 15 14 14 15 16 16 16 15 13 13 12 13 13 12 11 11 9 9 9 9 7 9 9 9 10 11 12 12 12 11 13 13 14 13 13 13 13 13 12 12 11 8 8 9 9 10 10 11 11 12 13 14
7 15 20 21 20 20 16 15 12 16 16 9 8 7 8 10 12 12 9 8 8 9 15 13 10 10 20 8 8 9 15 17 15 15 15 15 14 15 14 15 15 12 10 11 13 13 12 11 11 9 10 10 8 5 5 7 7 8 8 10 13 14 12 11 13 14 15 15 13 13 14 15 12 11 10 9 10 10 10 11 11 11 10 10 11 13
5 7 5 10 14 11 10 10 12 17 12 12 11 9 7 8 9 10 9 9 7 13 15 17 17 15 15 9 8 8 10 9 8 8 7 9 13 16 15 13 10 9 9 8 9 10 10 9 10 8 9 8 6 4 6 7 7 7 8 10 12 14 12 13 13 14 16 14 14 14 14 15 14 13 11 11 12 11 10 11 11 11 10 10 10 11
3 2 4 4 9 9 14 13 12 9 9 14 8 10 7 2 5 6 6 6 11 12 15 19 18 20 16 4 2 3 8 4 2 5 9 13 12 10 9 9 9 9 8 7 7 7 7 7 7 6 8 8 8 7 8 7 7 8 9 9 12 13 13 13 13 14 14 14 14 14 15 14 14 13 11 13 13 12 12 11 10 10 9 10 10 10
11 8 5 5 8 14 13 7 5 9 11 10 9 7 10 5 6 8 6 10 13 14 7 10 16 16 21 19 5 2 3 2 5 5 5 5 5 6 8 8 7 6 4 4 4 5 6 6 6 6 8 7 7 8 8 8 7 8 9 11 12 13 13 13 14 15 15 15 15 14 14 14 12 12 13 12 12 12 11 11 10 10 10 10 10 11
11 10 11 11 9 10 10 11 7 5 13 15 15 15 13 12 10 13 14 6 8 9 10 2 4 14 13 16 19 24 16 7 5 8 9 6 5 6 7 6 6 5 6 7 8 7 8 8 8 8 8 9 8 8 7 7 8 8 8 10 12 14 12 12 13 14 15 15 14 13 13 13 11 12 12 12 12 12 11 10 11 11 11 10 12 11
12 14 11 12 9 14 17 15 18 12 20 20 14 14 10 10 9 13 10 14 12 9 10 12 4 5 7 8 5 15 18 22 20 17 14 13 14 14 13 12 11 10 8 8 7 6 7 8 8 6 6 6 6 7 7 7 8 8 8 9 11 12 12 11 13 12 14 13 13 13 12 11 10 11 11 12 11 11 12 11 11 11 10 11 10 10
16 8 9 20 8 23 19 16 15 12 9 12 12 8 12 13 9 14 6 8 9 10 9 9 8 4 9 3 4 4 2 8 13 16 17 17 16 14 12 10 8 7 9 8 7 7 7 6 6 5 6 6 7 8 7 8 7 7 8 9 11 11 10 10 11 12 12 12 11 12 13 13 12 10 10 10 10 11 11 11 11 11 11 10 10 9
4 11 11 9 12 21 23 19 16 15 12 13 13 16 8 5 17 8 3 3 3 5 13 4 8 10 10 15 10 5 5 7 7 11 12 15 15 11 9 7 8 8 7 7 6 5 6 5 6 6 7 7 7 6 6 7 7 8 8 8 10 10 9 10 11 12 11 11 12 12 13 12 12 13 13 12 12 11 10 10 10 10 10 9 9 8
9 9 16 16 18 17 18 18 17 19 6 8 15 11 5 7 3 9 11 5 8 11 7 10 14 11 9 11 11 20 14 12 12 13 14 13 9 8 8 8 8 8 9 9 7 5 5 5 7 8 6 7 7 8 7 7 6 6 7 8 9 9 10 9 10 10 11 11 12 11 12 13 13 12 12 11 11 10 9 10 10 9 9 10 9 8
3 3 9 14 15 14 15 14 13 12 5 12 4 9 11 8 7 7 2 13 11 12 8 14 16 16 13 12 6 8 17 18 15 13 12 11 11 11 10 9 7 8 8 5 2 2 3 5 7 6 6 6 6 7 6 6 6 6 6 7 8 9 8 8 8 9 9 10 7 7 10 11 11 11 10 10 10 9 10 11 10 10 10 9 9 8
3 8 3 9 11 11 9 11 16 13 2 4 2 10 2 3 9 10 9 2 8 12 7 12 13 13 10 12 15 9 8 13 14 13 13 14 12 9 7 7 6 4 3 1 1 1 2 6 7 7 7 6 6 7 7 7 6 7 8 8 8 7 7 7 8 7 8 8 8 7 8 9 9 9 9 9 9 9 10 11 10 10 10 10 8 9
7 1 5 4 6 12 11 11 13 16 16 7 9 10 2 6 3 5 3 11 8 9 12 8 12 8 10 11 13 15 11 9 12 12 12 10 10 9 7 4 3 2 1 1 2 0 3 7 6 6 5 4 5 6 5 4 6 6 6 7 7 7 6 7 7 7 7 7 8 9 9 8 7 9 8 9 10 10 10 10 9 9 8 7 9 8
2 2 8 3 7 11 7 12 13 16 16 13 13 16 20 16 12 15 12 5 9 8 9 10 14 5 5 1 8 12 14 15 13 13 11 9 8 6 3 4 2 1 2 1 2 2 1 6 6 5 4 4 4 4 6 5 6 6 6 5 5 6 6 6 6 6 7 7 7 8 7 8 7 7 8 9 9 10 9 8 8 7 7 9 8 8
6 2 2 7 6 10 7 3 3 2 13 12 13 13 11 9 8 9 13 11 6 11 6 8 9 10 1 1 5 7 9 10 10 9 7 6 5 5 4 2 2 2 1 3 2 3 1 5 5 4 4 5 5 4 4 4 4 5 6 5 5 5 5 5 5 5 5 6 6 7 7 6 7 7 8 9 8 9 9 8 8 7 7 8 7 7
6 2 4 1 2 3 1 1 4 4 5 9 9 3 11 15 15 12 9 2 7 9 12 9 11 6 3 2 3 3 5 5 4 4 5 6 5 4 3 4 2 3 5 3 4 3 3 3 4 3 3 4 4 4 4 3 3 4 4 4 3 4 5 4 4 4 4 4 5 6 6 7 6 7 7 8 8 8 8 7 7 7 8 8 7 8
6 5 7 4 3 1 2 1 2 2 2 3 7 12 12 11 13 4 6 3 3 9 13 11 16 7 11 6 3 4 6 6 6 5 5 6 5 4 1 4 4 5 4 5 0 3 4 3 2 3 4 4 3 2 3 3 2 3 4 3 3 2 3 3 2 3 3 3 5 5 5 6 5 5 6 7 6 6 6 6 6 6 8 7 8 8
12 11 13 10 9 7 7 7 8 8 12 7 10 17 15 16 18 7 11 4 8 8 13 11 9 12 6 7 6 6 7 7 5 7 5 1 1 2 3 3 4 4 5 6 5 4 2 1 2 3 3 4 5 4 2 3 3 3 3 2 1 2 3 2 1 2 2 3 3 4 5 5 5 5 6 6 5 6 6 6 7 7 6 7 9 8
3 6 8 9 11 9 4 4 8 7 5 6 10 18 21 21 22 17 10 10 12 5 12 13 14 12 15 13 13 8 8 9 9 8 8 5 3 3 5 4 3 4 4 4 4 4 2 2 4 4 4 4 4 5 4 2 3 4 3 3 1 0 1 2 2 2 3 4 4 5 5 5 5 5 5 5 5 5 5 6 6 6 7 6 7 8
1 8 13 12 14 8 4 3 7 13 11 13 13 14 12 15 14 13 11 7 5 7 13 7 10 10 17 16 14 6 7 10 11 9 7 6 5 5 2 3 5 6 8 9 9 8 8 5 4 4 5 3 3 3 4 3 4 4 3 2 1 0 1 1 2 2 3 4 5 5 5 5 5 5 5 5 5 5 6 5 5 6 6 6 7 8
7 8 11 12 14 12 13 4 10 10 13 14 16 15 16 15 14 15 12 13 9 9 9 5 7 11 17 21 16 13 6 4 2 4 6 8 9 9 7 7 9 8 7 6 7 9 8 6 4 5 7 4 0 2 3 4 6 4 2 2 2 2 1 1 2 2 3 4 4 5 4 4 4 3 4 4 5 6 5 5 5 5 6 6 7 6
4 7 11 14 14 17 18 13 7 11 10 12 15 18 19 20 20 20 20 20 18 14 10 4 3 13 15 13 3 2 3 7 8 9 8 9 9 9 9 9 9 8 7 7 9 9 8 7 7 8 7 6 4 4 4 5 6 5 5 4 1 2 2 0 1 2 3 4 4 4 3 3 3 3 3 4 5 5 4 4 4 5 5 6 7 7
12 9 15 13 12 16 18 17 14 14 14 14 16 18 17 16 15 17 16 15 10 11 10 12 12 14 16 17 16 13 8 10 13 14 13 12 11 11 10 8 7 7 7 8 10 9 8 9 10 9 8 4 6 7 6 5 5 6 6 5 4 3 2 0 1 2 3 4 5 4 3 3 3 2 3 4 4 4 4 5 4 5 6 7 7 7
12 8 13 11 12 12 15 19 18 12 13 13 15 16 15 16 16 13 10 12 15 14 11 10 10 13 17 17 13 13 14 17 18 14 11 12 12 9 9 9 8 8 9 10 10 9 9 9 8 9 3 4 5 5 5 6 5 5 5 6 5 4 2 1 1 2 3 3 4 3 3 3 3 3 4 5 6 6 5 5 5 6 7 7 8 8
4 7 10 11 14 12 13 16 19 11 4 11 15 14 15 15 14 14 15 14 16 13 14 14 14 17 17 6 10 17 20 20 15 12 13 12 9 9 9 9 10 10 10 10 8 7 7 8 9 4 4 3 3 5 6 6 5 5 5 5 5 4 3 3 2 3 3 3 4 4 3 3 3 4 5 5 4 4 4 5 7 7 7 9 7 5
3 7 7 4 9 7 7 5 7 8 17 11 9 13 18 20 20 20 18 19 18 16 12 12 15 15 15 14 16 17 16 14 14 12 10 9 8 7 9 10 9 8 7 6 7 8 10 8 3 5 5 5 6 5 5 5 5 5 5 5 4 3 3 3 3 3 3 4 4 3 3 3 4 5 5 5 4 4 5 6 7 6 6 6 6 7
12 10 7 5 6 9 4 8 7 17 10 2 9 14 18 18 19 20 17 17 16 18 17 17 18 17 19 15 15 17 18 14 12 11 10 9 10 9 5 5 5 5 6 7 10 9 3 5 5 5 5 6 6 4 3 4 5 6 5 4 5 4 5 4 4 3 3 3 3 3 3 4 4 5 6 5 5 5 6 7 7 7 6 6 7 7
9 11 8 8 7 6 6 9 9 6 3 7 12 15 17 19 18 15 18 19 21 22 23 23 21 18 17 16 16 16 18 15 2 7 9 8 8 7 5 5 6 8 8 2 4 6 5 5 5 5 4 4 3 3 3 4 4 5 5 4 3 4 4 4 4 4 3 3 4 3 3 3 5 5 6 6 6 6 8 7 8 9 7 6 6 6
12 8 9 9 7 10 8 10 12 2 4 1 5 5 13 15 17 19 15 20 24 20 18 16 18 19 19 20 19 18 16 12 7 8 10 9 8 8 10 7 2 5 8 7 6 6 5 4 4 3 2 2 2 2 3 3 4 5 6 5 5 5 6 6 6 5 5 5 4 5 5 5 5 6 7 7 8 9 9 9 9 7 4 6 5 7
7 13 9 11 9 9 12 13 8 8 13 8 11 12 18 18 18 16 13 11 9 15 16 17 19 19 21 21 20 18 12 8 8 10 4 9 9 4 10 10 8 8 8 6 4 4 4 3 3 3 2 2 1 3 2 2 3 4 5 6 5 6 6 6 7 7 7 7 7 7 6 6 6 6 8 8 9 10 10 9 8 6 4 7 8 8
2 4 4 9 8 10 13 12 10 8 7 8 14 15 11 11 10 7 8 12 9 11 16 21 22 21 19 17 18 13 9 7 9 9 5 5 9 9 10 9 8 7 6 5 5 3 3 2 2 2 1 2 2 3 2 2 2 3 5 5 6 5 6 7 7 7 9 9 9 8 7 6 6 6 7 8 8 8 9 7 7 7 5 6 6 8
7 5 5 8 11 9 10 11 13 5 6 10 11 6 11 11 9 7 11 9 11 21 18 16 18 18 18 17 12 11 9 6 10 2 8 6 8 8 8 9 9 7 5 5 4 2 1 0 1 1 2 3 3 3 2 1 3 4 4 4 4 5 6 6 7 8 7 8 9 8 8 7 8 7 7 6 9 6 6 7 7 6 6 6 5 6
8 7 9 12 11 15 15 10 7 6 5 7 7 9 11 10 11 12 16 9 9 12 13 16 16 15 13 13 9 10 9 4 4 10 7 9 10 8 6 5 6 5 4 2 2 1 1 1 1 2 2 3 3 3 3 2 2 4 4 4 4 5 6 6 6 6 7 7 8 8 9 8 8 10 10 7 8 8 7 6 6 6 6 7 6 6
3 4 2 5 13 14 9 11 8 6 7 7 9 12 13 11 12 18 11 2 6 8 10 13 15 14 13 12 9 6 7 9 8 9 10 9 10 8 7 5 3 2 2 0 1 1 2 2 2 2 2 2 3 3 3 2 3 4 4 4 5 6 5 5 5 6 6 7 7 8 9 9 9 6 7 8 7 9 9 6 5 6 6 6 6 8
13 12 12 12 8 8 7 6 9 11 9 17 12 5 10 12 9 7 5 4 3 4 5 2 3 4 5 7 9 10 10 10 9 8 9 8 8 8 6 5 3 2 1 0 0 0 0 3 5 5 4 4 3 3 3 2 3 5 4 5 7 7 6 6 6 6 6 6 8 6 8 6 7 8 6 7 7 8 10 9 8 8 5 6 7 8
10 8 8 6 8 9 11 11 10 9 2 15 18 13 10 10 5 4 5 4 2 4 5 6 6 6 8 9 9 9 10 9 9 8 8 6 6 4 4 2 1 0 1 1 1 2 1 2 4 6 4 3 3 4 3 3 5 4 5 8 7 6 7 7 7 7 8 6 8 7 7 7 7 6 6 6 7 6 8 9 8 8 7 6 6 8
12 11 12 13 14 10 10 11 4 6 12 13 11 7 13 9 5 2 5 7 6 3 3 8 8 7 8 9 9 9 8 7 7 7 8 7 6 4 2 2 2 2 2 2 2 2 2 4 6 7 7 5 4 4 4 3 5 4 6 6 5 7 7 8 7 7 7 7 7 8 8 8 7 7 7 6 5 7 7 7 6 8 7 5 7 7
6 8 6 2 6 7 7 2 2 5 6 7 6 6 5 6 4 4 7 7 5 7 5 8 8 8 7 8 8 5 7 7 7 5 5 5 6 6 5 3 3 3 3 3 3 3 4 4 6 7 9 8 4 4 4 4 4 5 7 5 5 6 7 6 7 7 8 7 7 8 8 9 10 7 6 6 5 6 6 7 8 8 8 6 7 7
4 4 6 3 4 9 9 11 14 11 7 6 8 5 6 5 4 3 6 8 7 6 7 7 7 7 6 5 8 8 7 5 3 2 1 2 1 1 2 2 2 2 2 2 3 2 3 3 6 7 8 10 7 5 4 4 4 6 6 6 6 6 5 5 6 8 7 8 8 8 7 8 8 9 8 6 5 5 6 6 6 7 9 8 8 8
6 7 7 9 8 12 8 9 11 10 4 6 7 7 6 6 7 7 6 7 7 7 7 7 7 7 4 6 6 4 3 3 0 0 1 1 1 1 1 1 1 1 2 3 3 4 4 5 5 7 9 9 6 5 5 4 5 5 5 5 5 5 5 5 6 8 10 10 9 8 7 7 10 9 8 7 6 8 8 6 5 7 9 8 7 8
6 13 5 11 12 9 9 2 3 0 5 7 7 7 8 7 7 7 7 8 7 8 6 5 5 5 5 6 4 2 2 1 1 2 2 2 2 2 3 4 3 3 3 5 5 4 7 5 5 7 10 9 7 6 5 3 4 4 5 4 4 4 4 6 7 8 9 8 7 8 7 7 7 6 7 8 7 7 7 9 9 8 11 9 7 8
7 8 9 11 10 11 13 12 12 6 5 6 6 9 9 8 10 8 8 9 7 7 6 5 4 5 5 4 4 3 2 2 3 3 4 4 4 5 5 7 6 6 6 5 6 6 5 6 6 9 10 11 8 8 7 4 2 3 3 3 4 4 4 6 8 9 10 8 8 8 8 7 7 6 7 8 9 9 10 11 14 13 10 13 11 16
13 12 12 11 12 12 10 4 9 5 8 6 9 8 9 9 10 10 8 7 6 5 4 4 4 4 3 2 2 1 1 2 3 4 5 5 5 5 7 8 9 8 7 6 6 6 6 9 7 8 10 12 9 7 6 5 3 3 3 3 4 4 4 4 7 9 9 8 8 9 9 9 9 8 7 8 8 9 10 14 11 15 20 20 19 18
Wind_Direction
167 189 193 201 204 203 205 211 217 219 231 229 232 228 227 230 227 218 232 153 203 212 218 227 238 244 248 247 256 254 258 257 254 247 251 252 254 256 258 258 258 255 255 250 240 231 222 206 202 209 209 208 208 211 213 209 207 208 208 203 207 202 200 202 200 198 196 197 200 207 214 218 218 220 217 213 217 224 222 217 216 216 215 213 209 208
195 205 206 205 209 206 202 206 214 221 226 236 233 222 226 231 230 211 215 159 185 222 241 238 247 249 250 248 256 258 256 255 258 261 252 253 256 256 255 256 254 256 256 250 244 231 222 207 208 210 206 206 208 210 209 210 208 208 208 207 205 200 199 203 204 201 201 201 197 195 202 206 207 207 208 216 217 219 221 218 217 218 217 213 210 203
204 213 207 207 208 207 206 207 211 217 220 221 233 221 222 228 230 233 228 177 168 205 255 258 262 259 253 252 252 259 256 257 258 258 260 260 260 260 255 254 257 255 253 248 245 237 235 211 202 203 205 203 210 210 209 209 209 209 208 211 207 203 200 203 205 204 206 206 203 198 197 197 202 207 206 207 209 212 219 220 219 218 217 213 214 208
206 218 214 205 203 205 208 208 210 219 225 218 226 223 219 221 220 210 202 187 196 207 261 276 282 268 262 257 251 253 256 253 251 252 254 252 254 254 254 254 257 256 253 250 247 247 244 240 204 200 201 203 202 212 215 211 212 212 211 209 206 208 205 204 204 206 212 209 206 206 205 199 200 200 202 204 208 214 216 221 218 219 217 215 217 216
204 199 206 203 203 205 210 209 210 212 219 219 227 227 229 222 222 243 235 193 215 225 257 281 275 269 252 251 246 236 244 248 245 248 248 248 246 251 256 255 252 257 258 258 256 252 251 246 244 217 200 198 197 202 206 209 208 211 212 206 203 206 206 205 201 201 206 210 207 201 206 201 206 213 206 203 215 215 214 217 218 217 215 216 216 218
217 213 178 205 208 208 208 209 207 206 221 221 221 231 232 234 241 221 248 208 218 242 201 214 279 265 251 247 248 242 227 238 237 242 245 247 245 244 248 250 249 248 249 252 253 254 255 255 253 251 227 197 200 203 205 202 210 213 212 207 205 208 208 206 203 198 197 204 202 196 197 205 209 211 209 208 208 206 205 208 210 211 210 212 214 215
216 198 191 199 207 207 213 216 202 203 218 224 212 208 234 234 235 223 229 224 250 253 246 154 241 278 276 265 251 246 233 238 235 232 239 241 240 242 245 248 248 246 248 245 248 252 253 251 251 252 248 238 208 212 198 203 213 217 219 215 207 208 210 206 202 194 193 201 204 203 202 204 206 209 214 213 208 208 205 200 201 205 204 207 209 211
199 204 203 203 204 204 205 216 206 207 216 228 198 201 211 229 229 222 236 234 258 272 153 148 256 282 283 250 246 251 252 249 244 238 236 233 236 240 243 246 246 243 245 248 249 249 248 249 250 253 250 239 235 225 206 205 208 217 221 219 216 214 213 209 198 196 194 199 202 205 209 211 216 216 219 208 214 215 208 203 202 199 202 202 202 205
188 202 202 200 204 203 209 204 192 201 215 226 261 204 200 212 233 232 239 246 258 265 258 234 205 261 259 261 229 234 244 241 242 237 237 234 237 246 248 250 251 248 247 250 252 256 255 254 255 256 254 248 245 240 227 206 207 214 222 225 225 224 219 214 202 199 198 201 203 205 208 214 219 222 224 219 213 213 208 210 202 201 199 201 203 203
192 207 209 208 203 208 202 199 189 196 217 197 96 170 205 206 222 229 230 240 244 243 248 238 217 243 270 250 243 222 228 237 237 236 233 238 239 241 242 245 252 256 250 247 254 261 262 264 266 262 261 259 255 245 228 223 218 219 218 223 227 229 227 221 213 203 202 201 203 208 211 214 216 213 220 218 219 213 205 208 207 201 200 201 201 204
327 350 336 219 215 196 191 195 185 193 202 123 150 166 190 208 214 220 226 227 239 235 236 231 222 223 270 263 236 234 230 220 228 228 220 228 233 237 240 248 254 250 247 243 251 258 266 268 266 264 261 259 254 226 224 229 229 228 224 226 227 229 228 224 221 210 207 203 203 212 213 213 215 212 210 212 218 217 208 208 206 202 202 201 204 202
257 132 169 220 222 203 188 187 183 180 135 145 172 180 159 195 223 220 224 219 228 239 232 230 225 223 241 264 179 106 71 92 201 238 228 228 233 241 248 249 249 247 242 248 256 270 278 272 258 253 253 250 244 237 229 223 223 224 227 226 231 231 227 226 222 217 213 209 208 213 214 215 216 212 210 213 218 214 215 212 208 204 203 205 205 205
217 205 188 192 204 206 189 136 179 116 147 179 155 175 168 193 162 224 199 211 214 227 234 247 227 234 236 247 232 121 118 142 221 253 239 233 235 243 246 240 238 239 240 232 245 252 257 262 252 232 243 243 233 226 228 231 218 220 226 228 230 232 226 223 220 219 218 213 212 211 213 217 217 217 218 219 220 218 216 215 214 207 208 205 205 207
214 205 188 187 189 191 173 160 138 151 183 184 182 173 188 208 199 225 216 224 233 241 249 93 314 260 261 262 243 251 242 243 253 234 233 226 248 254 248 240 237 230 228 242 248 248 255 254 254 251 257 258 258 252 244 238 236 227 223 229 230 236 229 225 224 223 221 218 217 214 213 216 216 219 220 220 222 221 220 219 217 214 210 208 207 206
191 214 213 164 196 163 196 187 174 174 175 192 182 186 196 202 211 222 224 221 217 232 231 221 268 223 188 239 232 233 229 232 228 233 239 254 265 266 262 263 268 271 268 261 253 244 248 255 262 271 263 259 257 253 248 242 237 235 237 235 233 239 236 231 229 225 224 222 220 219 218 216 216 217 218 221 223 224 221 219 220 219 216 216 213 210
210 233 165 188 154 175 189 185 182 158 172 195 197 205 213 218 223 238 232 222 208 213 224 192 211 177 209 213 79 73 126 204 223 232 236 245 250 249 255 259 263 263 269 272 268 264 265 272 278 269 267 263 258 255 249 243 237 232 234 236 237 239 241 233 230 228 226 226 224 221 220 220 218 216 220 224 220 224 224 222 221 223 221 221 219 214
129 226 132 152 178 187 189 182 188 158 190 186 197 211 214 209 225 237 272 25 240 217 241 197 231 255 299 275 234 162 178 182 205 214 218 229 234 243 249 253 251 258 265 262 255 265 278 280 276 269 269 268 268 263 250 246 238 233 234 232 236 240 242 234 227 227 225 224 224 223 221 221 218 218 218 222 224 221 223 224 224 225 226 225 222 218
178 204 163 170 188 194 191 199 197 200 206 155 211 194 132 25 330 227 239 200 204 226 236 199 230 233 203 271 212 218 204 195 194 203 212 218 220 228 232 237 239 246 252 257 268 274 278 285 279 272 265 266 273 279 282 274 260 249 244 239 241 240 235 230 227 225 225 224 225 225 222 221 221 220 222 224 226 224 223 224 225 225 225 224 219 215
168 173 183 185 185 189 186 188 210 209 355 216 225 160 195 197 207 203 214 223 208 220 233 230 229 236 211 219 90 173 216 216 209 208 216 224 228 237 238 235 243 246 248 258 250 254 290 286 277 285 291 300 302 302 294 282 266 256 247 242 242 246 243 237 226 224 225 225 224 225 225 223 222 224 225 225 226 227 227 227 224 223 225 227 221 214
301 205 148 191 199 163 168 187 197 193 232 1 84 195 64 127 217 195 207 247 224 238 231 244 230 248 215 234 240 250 213 206 196 208 217 223 226 229 215 210 214 230 245 145 173 241 280 284 293 307 312 320 315 306 300 292 283 266 260 254 249 249 248 246 242 238 238 233 230 226 224 227 227 226 225 225 225 226 228 230 229 228 229 228 225 223
185 295 211 154 140 159 196 181 200 185 184 177 181 190 127 223 352 267 217 211 213 230 229 244 243 226 233 227 231 229 213 183 174 188 198 208 215 219 239 262 252 246 73 189 199 155 305 295 311 324 335 321 301 287 281 275 277 282 280 268 258 252 248 240 236 238 240 240 237 233 230 229 226 227 224 226 226 228 230 230 228 230 231 231 229 227
103 234 190 153 186 200 194 189 208 198 181 179 184 191 188 176 180 196 220 178 218 219 228 236 246 250 260 209 230 220 221 226 215 231 238 216 220 230 209 212 203 73 239 225 150 130 270 294 307 325 330 300 290 298 318 322 310 293 279 273 272 264 253 245 239 228 232 234 236 234 230 228 228 225 223 225 226 228 231 232 231 230 232 234 234 228
159 140 149 197 212 189 171 28 353 246 196 191 183 199 189 199 177 201 220 200 199 224 247 252 267 250 221 135 240 222 216 218 213 210 216 192 194 175 182 163 149 208 300 20 115 149 206 283 296 307 302 306 300 302 318 324 320 311 303 293 273 261 259 251 246 237 230 230 231 230 226 223 223 222 223 224 227 229 229 230 231 227 227 230 233 230
108 166 161 317 22 358 138 141 38 18 175 193 218 239 187 202 197 209 213 200 204 192 219 227 245 251 144 135 63 81 92 103 93 161 163 161 166 172 197 157 127 25 9 352 142 160 189 263 292 299 321 338 324 329 339 322 300 293 280 274 273 278 280 268 255 248 245 244 244 245 238 228 223 222 223 224 225 228 228 225 226 223 226 228 225 230
181 180 171 163 186 144 317 313 192 350 287 203 188 205 208 198 206 203 58 84 209 202 209 209 235 223 228 162 114 134 142 133 134 132 145 168 183 209 154 47 23 1 327 334 349 164 207 220 329 329 317 312 302 293 318 328 308 293 281 255 258 282 291 284 285 272 272 272 269 260 254 248 237 232 229 232 234 235 231 230 227 221 223 222 228 231
199 156 174 191 183 175 191 195 197 178 203 190 202 198 203 205 201 172 221 175 237 166 209 224 239 239 219 152 197 190 204 236 209 169 173 197 349 22 358 334 324 292 301 321 309 226 244 317 249 256 310 315 320 325 335 325 320 290 282 284 352 329 317 290 275 262 255 249 252 261 256 251 244 239 238 239 244 245 241 236 231 229 226 228 232 230
196 184 212 200 196 203 180 64 57 70 90 183 190 192 195 206 206 207 208 211 212 158 216 212 228 247 242 239 250 236 192 226 218 192 192 198 219 231 232 240 242 291 287 283 283 300 291 206 236 250 251 276 306 336 336 291 286 265 271 305 345 65 291 294 278 238 234 236 231 233 233 231 230 229 228 230 232 234 238 237 237 234 237 231 233 234
193 201 206 214 231 256 244 124 154 149 178 199 187 199 198 200 207 212 209 219 158 204 235 202 229 236 255 254 253 229 222 215 216 202 194 203 216 256 274 229 265 296 329 335 330 311 296 280 256 247 230 242 325 316 313 293 250 254 266 283 139 194 216 234 253 253 243 241 246 236 228 222 222 224 227 227 229 230 231 233 233 236 242 241 237 233
183 208 197 199 223 234 253 169 170 181 175 184 193 193 195 198 193 209 215 224 197 222 232 215 216 233 254 251 246 237 233 199 217 287 292 290 290 294 301 308 304 303 297 288 284 283 281 286 307 332 343 333 189 319 333 335 332 322 269 193 151 170 157 275 271 276 278 275 268 265 261 250 243 242 239 234 237 236 236 234 232 234 234 238 243 243
171 230 199 208 217 220 227 230 198 177 186 195 195 195 193 188 198 203 215 216 209 215 218 219 246 244 252 269 256 247 305 275 269 267 270 262 261 260 250 253 260 269 275 270 267 271 281 299 320 336 342 328 350 6 355 334 326 330 328 338 113 98 108 199 269 285 289 271 269 276 278 274 278 269 269 271 269 272 267 255 247 244 241 240 243 251
199 203 198 210 220 226 221 214 199 196 179 197 194 197 197 196 203 205 216 220 213 233 236 247 246 259 264 270 276 273 262 270 264 254 252 255 257 247 244 253 257 252 254 255 257 263 293 319 326 329 317 357 12 348 334 334 331 336 337 352 7 57 107 182 272 261 267 284 294 299 293 283 276 278 273 271 268 259 256 250 249 251 256 255 250 248
202 214 196 206 220 228 220 219 211 200 204 201 197 190 185 182 200 199 210 200 203 212 223 230 242 250 257 255 255 249 249 248 250 257 265 265 259 244 244 246 246 242 242 251 263 284 300 303 305 310 17 20 351 338 337 339 342 338 348 344 356 2 348 250 234 269 281 281 290 285 275 272 273 260 260 260 261 261 260 258 254 251 247 251 251 250
204 199 207 198 214 225 213 211 215 208 201 225 212 194 187 195 200 200 213 205 208 203 227 223 227 234 245 206 208 231 232 238 242 248 250 249 242 237 238 239 246 247 251 261 275 276 280 286 291 342 34 6 16 357 353 348 338 339 343 340 341 329 335 339 329 318 315 318 311 309 305 291 281 270 260 253 251 248 257 258 260 258 259 259 261 268
216 213 214 201 222 220 207 193 188 198 223 218 130 184 192 200 201 210 214 213 214 203 220 216 226 228 231 231 233 248 249 238 244 245 235 240 244 233 227 237 242 251 257 257 258 264 265 272 350 24 28 28 21 10 351 339 335 332 331 322 321 325 329 325 330 328 317 315 311 315 309 293 279 277 275 276 268 258 256 255 251 255 263 275 271 258
186 200 232 191 214 226 140 128 192 224 239 87 174 187 196 207 210 216 220 219 217 210 216 228 234 231 233 235 241 247 254 252 248 246 228 230 233 242 219 177 191 208 237 244 250 259 303 39 24 38 29 25 5 359 5 1 353 332 325 341 333 336 329 329 320 320 313 302 297 283 280 283 280 281 284 280 272 262 260 261 272 268 259 262 264 261
178 188 197 219 215 224 189 178 226 248 151 191 203 195 196 210 218 224 232 227 222 214 209 218 224 231 239 246 251 253 259 261 212 223 235 231 212 196 194 195 200 209 229 266 51 50 50 50 45 34 31 357 352 0 46 10 336 326 324 315 304 329 319 314 311 297 285 293 300 301 301 303 293 290 288 288 285 276 274 269 260 267 262 259 260 257
187 185 194 210 199 224 209 213 220 30 34 23 111 186 187 200 200 206 221 223 220 221 219 227 229 234 239 240 244 249 254 262 247 243 223 181 158 185 219 232 187 85 77 71 64 66 54 46 45 38 7 6 330 32 65 11 349 333 325 333 345 340 336 334 329 334 335 325 325 324 323 313 305 302 299 298 296 292 287 285 279 265 237 255 255 257
220 199 186 207 210 204 220 226 224 217 226 191 198 209 199 205 205 208 223 246 210 221 223 226 227 229 231 236 241 246 253 260 253 258 252 165 178 140 87 88 85 80 80 83 85 70 64 48 22 31 358 348 5 68 77 41 357 335 334 334 341 345 342 340 336 338 337 335 333 328 325 317 309 302 299 300 295 293 293 291 283 276 247 247 256 257
287 292 222 214 208 200 220 230 228 226 220 209 212 205 197 205 207 209 220 243 220 222 209 216 224 227 230 234 239 242 240 243 246 249 102 101 101 108 103 100 101 101 100 96 84 64 52 33 358 314 314 338 4 20 42 33 4 355 337 331 334 336 332 336 336 336 333 329 326 323 318 313 306 299 296 294 291 290 288 284 280 280 271 261 254 257
202 218 166 206 220 215 215 222 232 211 224 212 219 177 154 150 154 145 224 232 209 226 219 218 225 228 230 234 242 247 245 243 246 217 116 110 96 90 108 112 108 107 94 94 90 62 285 245 297 348 11 2 344 340 356 34 1 340 331 325 321 317 317 326 331 325 322 320 319 318 316 316 314 308 306 299 294 291 282 284 286 280 272 266 259 265
190 191 199 205 205 215 214 231 242 242 233 247 213 162 145 144 155 198 220 212 215 220 206 213 219 224 230 233 223 238 230 243 98 111 119 114 102 94 83 78 81 83 82 67 59 23 316 351 18 324 324 317 314 322 332 13 2 330 324 316 313 310 314 320 317 318 317 315 313 315 315 317 318 314 310 304 299 298 295 293 288 287 282 276 269 267
145 166 200 213 218 216 214 219 222 246 235 237 153 148 147 142 203 220 221 233 116 133 185 200 211 214 218 225 221 212 100 108 110 109 116 112 111 108 102 96 106 110 136 161 277 284 308 297 290 279 273 286 311 317 324 354 331 311 313 310 298 297 307 309 310 308 310 309 310 311 310 308 305 304 300 304 307 304 298 294 286 281 279 277 276 275
176 180 189 190 189 211 210 214 212 233 215 200 121 119 179 201 222 194 92 49 45 126 120 80 207 163 145 107 100 110 122 113 114 104 99 105 105 107 102 101 85 77 91 112 308 241 83 316 316 315 309 308 316 321 312 324 307 295 299 297 295 308 315 311 306 306 310 314 310 304 299 296 296 295 297 294 294 294 296 300 302 294 281 276 279 276
164 194 181 210 184 188 191 202 211 201 280 133 150 189 197 206 35 100 153 118 90 115 129 117 93 103 110 115 116 114 116 116 106 119 114 108 107 111 128 134 145 206 251 242 223 268 265 281 289 297 294 300 300 299 293 284 287 292 296 288 294 309 308 308 311 317 317 311 306 306 303 299 297 293 291 290 289 286 284 291 293 290 287 280 273 279
181 204 182 200 184 193 189 204 173 108 141 173 179 192 187 179 97 88 82 126 143 98 101 117 113 99 109 119 118 122 118 121 119 122 130 134 138 146 156 168 172 191 234 278 294 302 299 289 300 301 298 287 278 273 275 257 260 269 274 279 298 305 308 309 315 316 310 309 308 306 303 302 300 301 298 290 284 289 292 290 287 290 285 264 264 263
187 203 57 43 211 218 276 320 100 164 173 160 68 29 108 107 68 87 115 108 95 120 122 123 124 110 112 120 121 120 127 131 133 153 149 151 160 169 172 177 196 200 198 201 230 237 247 277 282 285 289 293 286 279 263 252 247 259 262 279 296 298 299 307 310 307 303 304 302 299 300 302 301 297 292 293 288 277 275 279 287 287 288 279 265 261
218 187 201 213 142 170 230 219 238 222 179 149 98 55 38 74 96 95 104 107 115 100 86 83 106 116 119 125 124 124 123 138 121 136 152 130 147 128 156 175 211 222 232 233 235 240 258 257 273 277 282 288 293 280 260 242 234 245 272 283 281 281 284 292 293 295 299 303 305 302 300 296 300 304 302 294 290 284 282 277 276 275 275 271 270 267
221 168 207 200 194 208 211 215 223 225 173 160 139 130 118 111 76 48 72 88 88 73 82 93 101 95 106 101 90 86 117 124 97 34 13 12 343 320 293 222 232 256 248 259 278 284 271 260 267 280 281 281 278 264 256 252 257 255 256 260 269 278 291 297 297 302 306 307 304 299 296 290 288 290 295 295 298 300 298 286 269 270 268 272 265 271
124 138 201 177 215 221 241 45 88 105 212 157 129 118 133 127 102 80 76 84 90 92 82 66 65 85 82 69 68 75 49 352 15 350 340 326 315 302 299 305 288 271 274 280 283 283 284 285 275 275 282 283 287 288 289 259 239 248 251 258 266 273 291 297 298 297 297 297 294 290 288 284 283 285 289 294 291 275 269 283 287 274 277 255 236 250
130 196 173 187 207 216 212 209 175 182 198 156 135 122 118 110 108 107 99 100 105 110 99 100 80 60 53 57 44 37 3 342 336 332 308 308 301 299 299 300 301 299 297 291 290 294 290 283 283 291 293 293 301 301 296 290 238 228 229 240 256 264 276 290 301 303 301 302 299 297 297 296 295 294 290 289 292 294 286 248 235 254 260 278 258 230
197 184 179 194 194 219 209 169 155 131 61 83 110 98 100 105 115 118 120 127 128 105 99 96 101 110 122 127 142 80 330 272 295 295 286 279 283 291 294 296 300 301 301 302 305 298 288 289 291 287 286 290 297 289 287 288 290 268 255 224 236 244 263 282 297 299 297 300 298 298 299 298 298 296 294 292 292 294 296 306 285 228 233 245 253 253